Weather History for Ponca City, OK

Change the Weather History Date:

Thursday, February 21, 2013

  Actual Average Record
Temperature  
Mean Temperature 28 °F -  
Max Temperature 34 °F 54 °F 76 °F (1970)
Min Temperature 19 °F 27 °F 9 °F (1953)
Degree Days  
Heating Degree Days 38    
Moisture  
Dew Point 28 °F    
Average Humidity 90    
Maximum Humidity 100    
Minimum Humidity 77    
Precipitation  
Precipitation 0.81 in - - ()
Sea Level Pressure  
Sea Level Pressure 29.81 in    
Wind  
Wind Speed 13 mph (ENE)    
Max Wind Speed 24 mph    
Max Gust Speed 36 mph    
Visibility 5 miles    
Events Fog , Rain , Snow , Thunderstorm    
Averages and records for this station are not official NWS values.
T = Trace of Precipitation, MM = Missing Value Source: NWS Daily Summary

Daily Weather History Graph

Daily Weather History Graph

Search for Another Location

Airport:

Trip Planner

Search our weather history database for the weather conditions in past years. The results will help you decide how hot, cold, wet, or windy it might be!

Date:

Astronomy

Feb. 21, 2013 Rise Set
Actual Time 7:09 AM CST 6:15 PM CST
Civil Twilight 6:42 AM CST 6:41 PM CST
Nautical Twilight 6:12 AM CST 7:11 PM CST
Astronomical Twilight 5:42 AM CST 7:41 PM CST
Moon 2:35 PM CST (2/21) 4:10 AM CST (2/21)
Length of Visible Light 11h 58m
Length of Day
11h 06m
Waxing Gibbous, 84% of the Moon is Illuminated
Feb 21
Waxing Gibbous
Feb 25
Full
Mar 4
Last Quarter
Mar 11
New
Mar 19
First Quarter

Hourly Weather History & Observations

Time (CST) Temp. Windchill Dew Point Humidity Pressure Visibility Wind Dir Wind Speed Gust Speed Precip Events Conditions
12:23 AM 30.2 °F 21.3 °F 28.4 °F 93% 29.96 in 3.0 mi East 10.4 mph - 0.00 in Rain Light Freezing Rain
12:53 AM 30.9 °F 20.7 °F 28.9 °F 92% 29.96 in 4.0 mi East 13.8 mph - 0.00 in Rain Light Freezing Rain
1:48 AM 30.2 °F 18.5 °F 28.4 °F 93% 29.90 in 6.0 mi East 17.3 mph 25.3 mph 0.01 in Rain , Thunderstorm Light Freezing Rain
1:53 AM 30.9 °F 21.2 °F 28.0 °F 89% 29.93 in 6.0 mi ENE 12.7 mph 25.3 mph 0.01 in Rain , Thunderstorm Light Freezing Rain
2:03 AM 30.2 °F 18.9 °F 28.4 °F 93% 29.91 in 5.0 mi ENE 16.1 mph - 0.01 in Rain Light Freezing Rain
2:39 AM - - - N/A% 29.87 in - North - - 0.10 in Thunderstorm Unknown
2:53 AM 32.0 °F 22.5 °F 28.9 °F 88% 29.93 in 9.0 mi ESE 12.7 mph - 0.12 in Rain , Thunderstorm Light Freezing Rain
3:04 AM 30.2 °F 17.4 °F 28.4 °F 93% 29.83 in 4.0 mi ENE 20.7 mph 25.3 mph 0.01 in Rain , Thunderstorm Light Freezing Rain
3:15 AM 30.2 °F 17.8 °F 28.4 °F 93% 29.77 in 3.0 mi ENE 19.6 mph 33.4 mph 0.03 in Rain , Thunderstorm Light Freezing Rain
3:20 AM 30.2 °F 16.5 °F 28.4 °F 93% 29.77 in 4.0 mi ENE 24.2 mph 33.4 mph 0.03 in Rain , Thunderstorm Light Freezing Rain
3:23 AM 30.2 °F 16.8 °F 28.4 °F 93% 29.79 in 5.0 mi East 23.0 mph 32.2 mph 0.04 in Rain Light Freezing Rain
3:28 AM 32.0 °F 19.8 °F 28.4 °F 87% 29.79 in 5.0 mi ENE 20.7 mph 32.2 mph 0.04 in Rain Light Freezing Rain
3:35 AM 32.0 °F 23.6 °F 28.4 °F 87% 29.83 in 7.0 mi East 10.4 mph 26.5 mph 0.05 in Rain Light Freezing Rain
3:50 AM 32.0 °F 22.1 °F 30.2 °F 93% 29.80 in 3.0 mi ENE 13.8 mph - 0.11 in Rain , Thunderstorm Light Freezing Rain
3:53 AM 32.0 °F 19.8 °F 30.0 °F 92% 29.78 in 2.5 mi ENE 20.7 mph 26.5 mph 0.12 in Rain , Thunderstorm Light Freezing Rain
4:08 AM 32.0 °F 20.8 °F 28.4 °F 87% 29.78 in 6.0 mi East 17.3 mph 35.7 mph 0.03 in Rain , Thunderstorm Light Freezing Rain
4:14 AM 32.0 °F 25.6 °F 30.2 °F 93% 29.83 in 9.0 mi Variable 6.9 mph 25.3 mph 0.03 in Rain , Thunderstorm Light Freezing Rain
4:21 AM 32.0 °F 26.4 °F 28.4 °F 87% 29.89 in 9.0 mi Variable 5.8 mph 18.4 mph 0.04 in Rain Light Freezing Rain
4:31 AM 32.0 °F 24.2 °F 28.4 °F 87% 29.84 in 4.0 mi NE 9.2 mph - 0.05 in Rain Light Freezing Rain
4:50 AM 32.0 °F 23.6 °F 28.4 °F 87% 29.84 in 1.8 mi NE 10.4 mph 23.0 mph 0.06 in Rain Light Freezing Rain
4:53 AM 32.0 °F 23.0 °F 28.9 °F 88% 29.83 in 1.2 mi ENE 11.5 mph 23.0 mph 0.06 in Rain Light Freezing Rain
5:03 AM 30.2 °F 22.6 °F 28.4 °F 93% 29.84 in 1.2 mi NE 8.1 mph - N/A Rain Light Freezing Rain
5:18 AM 30.2 °F 22.6 °F 30.2 °F 100% 29.85 in 0.8 mi NE 8.1 mph - N/A Rain , Thunderstorm Light Freezing Rain
5:24 AM 30.2 °F 21.9 °F 30.2 °F 100% 29.85 in 0.5 mi NE 9.2 mph - N/A Fog , Snow , Thunderstorm Light Thunderstorms and Snow
5:49 AM 30.2 °F 19.8 °F 28.4 °F 93% 29.84 in 0.5 mi ENE 13.8 mph - N/A Fog , Snow Light Snow
5:53 AM 30.9 °F 21.7 °F 28.9 °F 92% 29.86 in 0.5 mi ENE 11.5 mph - N/A Fog , Snow , Thunderstorm Light Snow
6:06 AM 30.2 °F 20.8 °F 28.4 °F 93% 29.83 in 1.0 mi NE 11.5 mph 23.0 mph N/A Rain , Thunderstorm Light Freezing Rain
6:13 AM 30.2 °F 20.2 °F 28.4 °F 93% 29.83 in 1.0 mi NE 12.7 mph - N/A Snow Light Snow
6:24 AM 30.2 °F 19.3 °F 28.4 °F 93% 29.80 in 2.0 mi ENE 15.0 mph - N/A Snow Light Snow
6:35 AM 30.2 °F 22.6 °F 28.4 °F 93% 29.84 in 2.5 mi ENE 8.1 mph - N/A Rain Light Freezing Rain
6:46 AM 30.2 °F 20.2 °F 28.4 °F 93% 29.82 in 3.0 mi ENE 12.7 mph - N/A Rain Light Freezing Rain
6:53 AM 30.2 °F 19.3 °F 28.4 °F 93% 29.82 in 4.0 mi ENE 15.0 mph - N/A Rain Light Freezing Rain
7:07 AM 30.2 °F 19.8 °F 28.4 °F 93% 29.80 in 7.0 mi ENE 13.8 mph - 0.01 in   Overcast
7:32 AM 30.2 °F 18.9 °F 28.4 °F 93% 29.78 in 3.0 mi East 16.1 mph 25.3 mph 0.03 in Rain Light Freezing Rain
7:41 AM 30.2 °F 18.1 °F 28.4 °F 93% 29.77 in 2.5 mi East 18.4 mph - 0.04 in Rain Light Freezing Rain
7:46 AM 30.2 °F 17.4 °F 28.4 °F 93% 29.76 in 3.0 mi ENE 20.7 mph 26.5 mph 0.04 in Rain Light Freezing Rain
7:53 AM 30.0 °F 17.2 °F 27.0 °F 88% 29.79 in 5.0 mi ENE 20.7 mph 26.5 mph 0.04 in Rain Light Freezing Rain
8:00 AM 30.2 °F 17.4 °F 26.6 °F 86% 29.76 in 7.0 mi East 20.7 mph 26.5 mph 0.01 in   Overcast
8:23 AM 30.2 °F 19.3 °F 28.4 °F 93% 29.75 in 5.0 mi ENE 15.0 mph 24.2 mph 0.02 in   Overcast
8:53 AM 32.0 °F - 28.9 °F 88% 29.75 in - North - - 0.02 in   Unknown
9:53 AM 33.1 °F 23.4 °F 30.0 °F 89% 29.74 in 10.0 mi East 13.8 mph - N/A   Overcast
10:53 AM 33.1 °F 22.2 °F 30.0 °F 89% 29.73 in 10.0 mi ESE 17.3 mph 23.0 mph 0.07 in   Overcast
11:53 AM 33.1 °F 22.6 °F 30.0 °F 89% 29.72 in 10.0 mi ESE 16.1 mph 23.0 mph 0.07 in   Overcast
12:53 PM 33.1 °F 24.4 °F 30.0 °F 89% 29.70 in 10.0 mi ESE 11.5 mph - 0.06 in   Overcast
1:23 PM 33.8 °F 27.7 °F 30.2 °F 87% 29.70 in 2.0 mi SE 6.9 mph - 0.03 in   Overcast
1:42 PM 33.8 °F 28.6 °F 30.2 °F 87% 29.69 in 1.5 mi SE 5.8 mph - 0.04 in   Overcast
1:53 PM 33.1 °F 26.9 °F 30.9 °F 92% 29.71 in 1.5 mi SE 6.9 mph - 0.05 in   Overcast
2:24 PM 33.8 °F - 32.0 °F 93% 29.70 in 0.5 mi Calm Calm - 0.02 in Fog , Snow Light Snow
2:53 PM 33.1 °F - 32.0 °F 96% 29.72 in 0.8 mi Calm Calm - 0.02 in Snow Light Snow
3:05 PM 33.8 °F - 33.8 °F 100% 29.70 in 1.5 mi Calm Calm - 0.03 in Snow Light Snow
3:15 PM 33.8 °F - 32.0 °F 93% 29.69 in 2.5 mi Calm Calm - 0.05 in Snow Light Snow
3:23 PM 33.8 °F 30.8 °F 30.2 °F 87% 29.71 in 3.0 mi WSW 3.5 mph - N/A Snow Light Snow
3:50 PM 33.8 °F - 32.0 °F 93% 29.70 in 8.0 mi Calm Calm - 0.10 in   Overcast
3:53 PM 34.0 °F - 32.0 °F 92% 29.72 in 8.0 mi Calm Calm - 0.11 in   Overcast
4:53 PM 34.0 °F 29.8 °F 30.9 °F 89% 29.75 in 10.0 mi WSW 4.6 mph - 0.05 in   Overcast
5:11 PM 33.8 °F 29.6 °F 30.2 °F 87% 29.74 in 8.0 mi WSW 4.6 mph - N/A   Overcast
5:36 PM 33.8 °F 28.6 °F 30.2 °F 87% 29.75 in 7.0 mi West 5.8 mph - 0.01 in   Overcast
5:53 PM 30.9 °F 22.2 °F 28.9 °F 92% 29.78 in 8.0 mi WNW 10.4 mph 17.3 mph 0.01 in   Overcast
6:45 PM 28.4 °F 17.5 °F 24.8 °F 86% 29.81 in 10.0 mi WNW 13.8 mph 20.7 mph N/A   Overcast
6:53 PM 28.0 °F 16.5 °F 23.0 °F 81% 29.84 in 10.0 mi WNW 15.0 mph 23.0 mph N/A   Overcast
7:26 PM 26.6 °F 15.7 °F 21.2 °F 80% 29.82 in 10.0 mi WNW 12.7 mph 24.2 mph N/A   Overcast
7:34 PM 26.6 °F 14.7 °F 21.2 °F 80% 29.83 in 10.0 mi WNW 15.0 mph 23.0 mph N/A   Mostly Cloudy
7:53 PM 26.1 °F 14.0 °F 21.0 °F 81% 29.86 in 10.0 mi WNW 15.0 mph 19.6 mph N/A   Scattered Clouds
8:53 PM 24.1 °F 14.4 °F 18.0 °F 77% 29.90 in 10.0 mi WNW 9.2 mph - N/A   Clear
9:53 PM 21.9 °F 11.7 °F 16.0 °F 78% 29.94 in 10.0 mi West 9.2 mph 18.4 mph N/A   Clear
10:53 PM 21.0 °F 10.6 °F 15.1 °F 78% 29.96 in 10.0 mi West 9.2 mph - N/A   Clear
11:53 PM 19.9 °F 9.3 °F 14.0 °F 78% 29.97 in 10.0 mi West 9.2 mph - N/A   Clear